"startDT [UTC]","vpos","CH4 [ppm]","stdev(CH4) [ppm]","CO2 [ppm]","stdev(CO2) [ppm]","H2O_reported [%]","stdev(H2O_reported)","CavityPressure [torr]","CavityTemp [C]","OutletValve","CH4_dry [ppm]","CO2_dry [ppm]","DasTemp [C]","EtalonTemp [C]","WarmBoxTemp [C]","MPVPosition","T_ECpre [C]","T_EC1 [C]","T_EC2 [C]","p_inlet [hPa]","p_in [hPa]","p_out [hPa]","T_inlet [C]","RH_inlet [%]","dwpt_inlet [C]","T_vent [C]","RH_vent [%]","dwpt_vent [C]","flow_vent [l min-1]","flow_inlet [l min-1]","dwpt_sample [C]","T_room [C]"
2016-01-21 00:00:00,0.0,1.95237,0.00042,407.706,0.025,0.0729,0.0014,139.999,45.000,31421.05276,1.95375,408.063,28.941,45.072,45.001,0.00,0.08,-272.74,-272.80,-2,510,-955,15.0,3.4,-28.5,15.3,3.4,-28.2,5.73,1.77,-22.4,21.9
2016-01-21 00:01:00,0.0,1.95219,0.00037,407.684,0.030,0.0721,0.0011,139.999,45.000,31422.47691,1.95359,408.039,28.972,45.072,45.001,0.00,0.08,-272.75,-272.80,-1,510,-955,15.1,3.4,-28.6,15.3,3.4,-28.2,5.73,2.04,-22.4,21.9
2016-01-21 00:02:00,0.0,1.95203,0.00028,407.693,0.051,0.0725,0.0013,140.001,45.000,31424.85014,1.95343,408.050,28.991,45.072,45.000,0.00,0.08,-272.75,-272.80,-1,510,-955,15.0,3.4,-28.5,15.3,3.4,-28.2,5.73,1.72,-22.4,21.9
2016-01-21 00:03:00,0.0,1.95240,0.00050,407.694,0.038,0.0727,0.0021,139.997,45.000,31424.19472,1.95377,408.048,29.000,45.072,45.000,0.00,0.08,-272.75,-272.79,-1,510,-955,15.1,3.4,-28.5,15.3,3.4,-28.2,5.73,2.00,-22.4,21.9
2016-01-21 00:04:00,0.0,1.95270,0.00042,407.746,0.032,0.0726,0.0018,139.998,45.000,31423.86228,1.95410,408.102,28.999,45.071,45.000,0.00,0.08,-272.75,-272.79,-1,510,-955,15.1,3.4,-28.5,15.3,3.4,-28.2,5.73,1.87,-22.5,21.9
2016-01-21 00:05:00,0.0,1.95266,0.00032,407.717,0.023,0.0722,0.0014,139.999,45.000,31423.65960,1.95405,408.072,29.000,45.071,45.000,0.00,0.08,-272.75,-272.81,-1,510,-955,15.1,3.4,-28.5,15.3,3.4,-28.2,5.73,1.81,-22.4,21.9
2016-01-21 00:06:00,0.0,1.95241,0.00039,407.723,0.047,0.0725,0.0012,139.999,45.000,31424.44954,1.95382,408.078,29.002,45.071,45.000,0.00,0.08,-272.75,-272.79,-0,510,-955,15.1,3.4,-28.5,15.3,3.4,-28.3,5.73,2.03,-22.4,21.9
2016-01-21 00:07:00,0.0,1.95237,0.00043,407.734,0.030,0.0727,0.0013,139.995,45.000,31422.29518,1.95374,408.090,29.002,45.072,45.000,0.00,0.08,-272.74,-272.79,-2,510,-955,15.1,3.4,-28.5,15.3,3.4,-28.2,5.73,1.68,-22.5,21.9
2016-01-21 00:08:00,0.0,1.95289,0.00035,407.761,0.031,0.0721,0.0021,140.000,45.000,31421.33458,1.95429,408.114,29.026,45.072,45.000,0.00,0.08,-272.75,-272.80,-0,510,-955,15.1,3.4,-28.6,15.4,3.4,-28.3,5.73,2.00,-22.4,21.9
2016-01-21 00:09:00,0.0,1.95323,0.00048,407.818,0.023,0.0727,0.0015,139.996,45.000,31422.16760,1.95457,408.174,29.052,45.072,45.000,0.00,0.08,-272.75,-272.80,-2,510,-955,15.1,3.4,-28.6,15.4,3.4,-28.3,5.73,1.81,-22.4,21.9
2016-01-21 00:10:00,0.0,1.95332,0.00040,407.795,0.030,0.0707,0.0020,139.999,45.000,31422.79073,1.95469,408.141,29.055,45.071,45.000,0.00,0.08,-272.75,-272.79,-0,510,-955,15.1,3.3,-28.7,15.4,3.4,-28.3,5.73,1.83,-22.4,21.9
2016-01-21 00:11:00,0.0,1.95373,0.00026,407.827,0.028,0.0708,0.0016,139.996,45.000,31421.51974,1.95510,408.175,29.063,45.071,45.000,0.00,0.08,-272.75,-272.80,-2,510,-955,15.1,3.3,-28.7,15.4,3.4,-28.3,5.73,1.99,-22.4,21.9
2016-01-21 00:12:00,0.0,1.95324,0.00051,407.794,0.036,0.0707,0.0016,139.999,45.000,31422.54955,1.95462,408.142,29.065,45.071,45.000,0.00,0.08,-272.75,-272.80,-0,510,-955,15.1,3.3,-28.7,15.4,3.4,-28.3,5.73,1.71,-22.4,21.9
2016-01-21 00:13:00,0.0,1.95306,0.00035,407.799,0.030,0.0715,0.0017,139.997,45.000,31422.60660,1.95444,408.150,29.097,45.071,45.000,0.00,0.08,-272.75,-272.80,-2,510,-955,15.1,3.3,-28.7,15.4,3.4,-28.4,5.73,2.04,-22.5,21.9
2016-01-21 00:14:00,0.0,1.95289,0.00029,407.795,0.030,0.0709,0.0014,139.999,45.000,31424.59372,1.95424,408.143,29.118,45.071,45.000,0.00,0.08,-272.75,-272.80,-0,510,-955,15.1,3.3,-28.7,15.4,3.4,-28.4,5.73,1.79,-22.5,21.9
2016-01-21 00:15:00,0.0,1.95312,0.00048,407.802,0.031,0.0709,0.0019,139.998,45.000,31423.27142,1.95446,408.150,29.122,45.071,44.999,0.00,0.08,-272.75,-272.81,-1,510,-955,15.1,3.3,-28.8,15.4,3.4,-28.4,5.73,1.88,-22.4,21.9
2016-01-21 00:16:00,0.0,1.95272,0.00048,407.769,0.029,0.0711,0.0017,139.999,45.000,31426.55992,1.95410,408.119,29.124,45.071,45.000,0.00,0.08,-272.75,-272.80,-0,510,-955,15.1,3.3,-28.8,15.4,3.4,-28.4,5.73,1.98,-22.4,21.9
2016-01-21 00:17:00,0.0,1.95303,0.00042,407.780,0.026,0.0703,0.0012,139.998,45.000,31425.20802,1.95441,408.124,29.125,45.071,45.000,0.00,0.08,-272.75,-272.79,-1,510,-955,15.2,3.3,-28.8,15.4,3.3,-28.5,5.73,1.71,-22.4,21.9
2016-01-21 00:18:00,0.0,1.95347,0.00036,407.820,0.040,0.0711,0.0018,139.998,45.000,31424.88792,1.95479,408.169,29.126,45.072,45.000,0.00,0.08,-272.76,-272.80,-1,510,-955,15.1,3.3,-28.8,15.4,3.3,-28.5,5.73,2.04,-22.4,21.9
2016-01-21 00:19:00,0.0,1.95366,0.00054,407.825,0.033,0.0702,0.0019,140.001,45.000,31424.55527,1.95502,408.169,29.125,45.072,45.000,0.00,0.08,-272.75,-272.80,-1,510,-955,15.2,3.3,-28.8,15.4,3.3,-28.5,5.73,1.78,-22.4,22.0
2016-01-21 00:20:00,0.0,1.95362,0.00031,407.838,0.025,0.0706,0.0015,140.002,45.000,31426.21745,1.95494,408.183,29.128,45.072,45.000,0.00,0.08,-272.74,-272.79,-1,510,-955,15.2,3.3,-28.8,15.4,3.3,-28.5,5.73,1.89,-22.4,21.9
2016-01-21 00:21:00,0.0,1.95388,0.00023,407.859,0.021,0.0708,0.0017,139.998,45.000,31425.13041,1.95527,408.207,29.126,45.072,45.000,0.00,0.08,-272.76,-272.79,-0,510,-955,15.1,3.3,-28.7,15.4,3.3,-28.5,5.73,1.96,-22.4,21.9
2016-01-21 00:22:00,0.0,1.95427,0.00043,407.912,0.031,0.0703,0.0022,140.000,45.000,31425.74127,1.95560,408.256,29.126,45.072,45.000,0.00,0.08,-272.75,-272.80,-2,510,-955,15.1,3.3,-28.8,15.4,3.3,-28.5,5.73,1.73,-22.4,22.0
2016-01-21 00:23:00,0.0,1.95470,0.00048,407.912,0.041,0.0699,0.0016,139.997,45.000,31425.82338,1.95604,408.257,29.146,45.072,45.000,0.00,0.08,-272.75,-272.79,-0,510,-955,15.2,3.3,-28.9,15.4,3.3,-28.5,5.73,2.05,-22.4,21.9
2016-01-21 00:24:00,0.0,1.95450,0.00032,407.907,0.036,0.0702,0.0016,139.998,45.000,31427.59015,1.95586,408.250,29.177,45.072,45.000,0.00,0.08,-272.74,-272.79,-2,510,-955,15.2,3.3,-28.9,15.4,3.3,-28.5,5.73,1.76,-22.4,22.0
2016-01-21 00:25:00,0.0,1.95427,0.00046,407.894,0.030,0.0705,0.0013,140.000,45.000,31428.70585,1.95560,408.240,29.166,45.072,45.000,0.00,0.08,-272.75,-272.81,0,510,-955,15.1,3.3,-28.9,15.4,3.3,-28.5,5.73,1.94,-22.4,22.0
2016-01-21 00:26:00,0.0,1.95469,0.00037,407.941,0.034,0.0698,0.0017,140.001,45.000,31429.53232,1.95604,408.284,29.175,45.072,45.000,0.00,0.08,-272.75,-272.80,-2,510,-955,15.1,3.3,-28.9,15.4,3.3,-28.5,5.73,1.96,-22.4,22.0
2016-01-21 00:27:00,0.0,1.95444,0.00029,407.893,0.039,0.0696,0.0027,140.000,45.000,31429.82699,1.95579,408.236,29.170,45.072,45.000,0.00,0.08,-272.74,-272.80,-0,510,-955,15.1,3.2,-28.9,15.4,3.3,-28.5,5.73,1.77,-22.4,22.0
2016-01-21 00:28:00,0.0,1.95403,0.00035,407.893,0.026,0.0696,0.0018,139.999,45.000,31431.89492,1.95539,408.235,29.170,45.072,45.000,0.00,0.08,-272.75,-272.80,-2,510,-955,15.1,3.3,-28.8,15.4,3.3,-28.5,5.73,2.07,-22.4,21.9
2016-01-21 00:29:00,0.0,1.95402,0.00048,407.893,0.033,0.0711,0.0018,139.999,45.000,31433.01447,1.95537,408.242,29.169,45.072,45.000,0.00,0.08,-272.75,-272.80,-0,510,-955,15.1,3.3,-28.7,15.4,3.3,-28.4,5.73,1.77,-22.4,21.9
2016-01-21 00:30:00,0.0,1.95467,0.00030,407.906,0.026,0.0719,0.0018,139.999,45.000,31430.78490,1.95605,408.259,29.172,45.072,45.000,0.00,0.08,-272.75,-272.80,-1,510,-955,15.2,3.3,-28.7,15.4,3.4,-28.4,5.73,1.97,-22.4,21.9
2016-01-21 00:31:00,0.0,1.95466,0.00040,407.930,0.029,0.0711,0.0016,139.999,45.000,31431.02328,1.95602,408.278,29.153,45.072,45.000,0.00,0.08,-272.75,-272.79,-1,510,-955,15.2,3.3,-28.7,15.4,3.4,-28.4,5.73,1.94,-22.4,22.0
2016-01-21 00:32:00,0.0,1.95459,0.00051,407.945,0.033,0.0710,0.0018,139.997,45.000,31433.00407,1.95595,408.294,29.144,45.072,45.000,0.00,0.08,-272.75,-272.81,-1,511,-956,15.1,3.3,-28.7,15.4,3.4,-28.4,5.73,1.78,-22.4,22.0
2016-01-21 00:33:00,0.0,1.95463,0.00031,407.931,0.045,0.0702,0.0021,139.999,45.000,31432.90782,1.95598,408.277,29.170,45.072,45.000,0.00,0.08,-272.75,-272.80,-1,510,-955,15.2,3.3,-28.7,15.4,3.4,-28.4,5.73,2.08,-22.4,22.0
2016-01-21 00:34:00,0.0,1.95453,0.00042,407.929,0.033,0.0710,0.0016,139.998,45.000,31431.98058,1.95590,408.275,29.180,45.072,45.000,0.00,0.08,-272.75,-272.79,-0,511,-956,15.2,3.3,-28.7,15.4,3.4,-28.4,5.73,1.76,-22.4,22.0
2016-01-21 00:35:00,0.0,1.95474,0.00040,407.919,0.030,0.0713,0.0014,139.999,45.000,31432.11028,1.95610,408.270,29.186,45.072,45.000,0.00,0.08,-272.75,-272.80,-1,510,-956,15.1,3.3,-28.7,15.4,3.4,-28.3,5.73,1.99,-22.4,22.0
2016-01-21 00:36:00,0.0,1.95461,0.00046,407.962,0.033,0.0718,0.0016,139.996,45.000,31431.27976,1.95601,408.314,29.174,45.072,45.000,0.00,0.08,-272.75,-272.79,0,510,-956,15.2,3.3,-28.6,15.4,3.4,-28.3,5.73,1.94,-22.4,22.0
2016-01-21 00:37:00,0.0,1.95461,0.00045,407.950,0.033,0.0718,0.0015,139.999,45.000,31433.07850,1.95600,408.304,29.185,45.072,45.000,0.00,0.08,-272.74,-272.80,-2,510,-956,15.2,3.4,-28.6,15.4,3.4,-28.3,5.73,1.79,-22.4,22.0
2016-01-21 00:38:00,0.0,1.95454,0.00030,407.936,0.030,0.0710,0.0016,139.999,45.000,31434.48869,1.95589,408.284,29.187,45.072,45.000,0.00,0.08,-272.75,-272.80,0,510,-956,15.2,3.3,-28.7,15.4,3.4,-28.3,5.73,2.08,-22.4,22.0
2016-01-21 00:39:00,0.0,1.95473,0.00034,407.943,0.025,0.0699,0.0016,139.999,45.000,31433.54877,1.95609,408.287,29.183,45.072,45.000,0.00,0.08,-272.75,-272.81,-2,510,-955,15.2,3.3,-28.8,15.4,3.3,-28.5,5.73,1.75,-22.4,22.0
2016-01-21 00:40:00,0.0,1.95470,0.00037,407.931,0.032,0.0702,0.0014,139.998,45.000,31433.05408,1.95606,408.275,29.179,45.072,45.000,0.00,0.08,-272.74,-272.80,-0,510,-955,15.2,3.3,-28.9,15.4,3.3,-28.5,5.73,1.94,-22.4,22.0
2016-01-21 00:41:00,0.0,1.95473,0.00038,407.924,0.032,0.0688,0.0022,139.998,45.000,31432.62006,1.95605,408.262,29.157,45.072,45.000,0.00,0.08,-272.75,-272.80,-1,510,-955,15.2,3.2,-28.9,15.4,3.3,-28.5,5.73,1.93,-22.4,22.0
2016-01-21 00:42:00,0.0,1.95482,0.00035,407.905,0.033,0.0686,0.0016,140.000,45.000,31433.50686,1.95611,408.243,29.153,45.072,45.001,0.00,0.08,-272.75,-272.81,-1,510,-955,15.2,3.2,-29.0,15.4,3.3,-28.5,5.73,1.75,-22.4,22.0
2016-01-21 00:43:00,0.0,1.95474,0.00033,407.904,0.040,0.0692,0.0016,139.999,45.000,31431.51005,1.95610,408.243,29.150,45.072,45.001,0.00,0.08,-272.75,-272.80,-1,511,-956,15.2,3.2,-29.1,15.4,3.3,-28.7,5.73,2.05,-22.4,22.0
2016-01-21 00:44:00,0.0,1.95426,0.00046,407.872,0.034,0.0687,0.0011,139.999,45.000,31432.91351,1.95560,408.209,29.182,45.072,45.000,0.00,0.08,-272.75,-272.80,-1,510,-955,15.2,3.2,-29.1,15.4,3.3,-28.6,5.73,1.75,-22.4,22.0
2016-01-21 00:45:00,0.0,1.95452,0.00035,407.902,0.035,0.0699,0.0011,139.997,45.000,31432.00889,1.95584,408.244,29.185,45.072,45.000,0.00,0.08,-272.75,-272.80,-0,510,-956,15.2,3.2,-29.0,15.4,3.3,-28.6,5.73,1.91,-22.3,22.0
2016-01-21 00:46:00,0.0,1.95455,0.00029,407.914,0.028,0.0698,0.0013,140.000,45.000,31433.71637,1.95591,408.258,29.190,45.072,45.000,0.00,0.08,-272.76,-272.80,-1,510,-955,15.2,3.2,-29.0,15.4,3.3,-28.6,5.73,1.94,-22.3,22.0
2016-01-21 00:47:00,0.0,1.95425,0.00035,407.886,0.030,0.0695,0.0017,140.000,45.000,31434.14561,1.95559,408.228,29.221,45.072,45.000,0.00,0.08,-272.74,-272.79,0,510,-955,15.2,3.2,-29.0,15.5,3.3,-28.5,5.73,1.74,-22.3,22.0
2016-01-21 00:48:00,0.0,1.95428,0.00037,407.847,0.025,0.0694,0.0019,139.999,45.000,31434.30063,1.95562,408.188,29.249,45.072,45.000,0.00,0.08,-272.75,-272.80,-2,510,-956,15.2,3.2,-29.1,15.5,3.3,-28.6,5.73,2.04,-22.4,22.0
2016-01-21 00:49:00,0.0,1.95411,0.00041,407.857,0.030,0.0692,0.0015,139.998,45.000,31436.36539,1.95544,408.196,29.280,45.071,45.000,0.00,0.08,-272.76,-272.80,0,510,-955,15.2,3.2,-29.1,15.5,3.3,-28.6,5.73,1.76,-22.3,22.0
2016-01-21 00:50:00,0.0,1.95386,0.00037,407.860,0.036,0.0695,0.0015,139.999,45.000,31437.36450,1.95520,408.201,29.301,45.071,44.999,0.00,0.08,-272.74,-272.80,-2,511,-955,15.2,3.2,-29.1,15.5,3.3,-28.6,5.73,1.86,-22.3,22.0
2016-01-21 00:51:00,0.0,1.95397,0.00043,407.857,0.030,0.0691,0.0013,139.999,45.000,31436.02111,1.95531,408.196,29.308,45.071,44.999,0.00,0.08,-272.75,-272.80,-0,510,-955,15.3,3.2,-29.1,15.5,3.3,-28.6,5.73,1.96,-22.3,22.0
2016-01-21 00:52:00,0.0,1.95383,0.00038,407.839,0.028,0.0678,0.0011,139.999,45.000,31437.79598,1.95514,408.172,29.313,45.071,44.999,0.00,0.08,-272.74,-272.81,-1,511,-956,15.2,3.1,-29.2,15.5,3.2,-28.7,5.73,1.71,-22.3,22.0
2016-01-21 00:53:00,0.0,1.95371,0.00041,407.803,0.043,0.0686,0.0016,139.995,45.000,31436.52463,1.95502,408.141,29.316,45.071,45.000,0.00,0.08,-272.75,-272.80,-1,510,-956,15.3,3.1,-29.2,15.5,3.2,-28.7,5.73,2.01,-22.3,22.0
2016-01-21 00:54:00,0.0,1.95324,0.00032,407.790,0.034,0.0678,0.0020,140.000,45.000,31437.93668,1.95457,408.123,29.324,45.071,44.999,0.00,0.08,-272.75,-272.79,-1,511,-956,15.3,3.2,-29.1,15.5,3.2,-28.7,5.73,1.79,-22.3,22.0
2016-01-21 00:55:00,0.0,1.95348,0.00033,407.800,0.035,0.0691,0.0019,139.998,45.000,31437.75504,1.95481,408.139,29.339,45.071,45.000,0.00,0.08,-272.75,-272.81,-1,510,-956,15.3,3.2,-29.1,15.5,3.2,-28.7,5.73,1.83,-22.3,22.0
2016-01-21 00:56:00,0.0,1.95342,0.00039,407.806,0.022,0.0684,0.0018,140.000,45.000,31439.28941,1.95474,408.142,29.352,45.071,45.000,0.00,0.08,-272.75,-272.80,-0,511,-956,15.3,3.2,-29.1,15.5,3.2,-28.7,5.73,1.99,-22.3,22.0
2016-01-21 00:57:00,0.0,1.95325,0.00038,407.812,0.030,0.0685,0.0020,139.999,45.000,31440.40262,1.95456,408.148,29.374,45.071,45.000,0.00,0.08,-272.74,-272.80,-2,511,-956,15.3,3.2,-29.1,15.5,3.2,-28.7,5.73,1.69,-22.3,22.0
2016-01-21 00:58:00,0.0,1.95298,0.00033,407.776,0.032,0.0682,0.0016,139.999,45.000,31441.58827,1.95429,408.111,29.343,45.072,45.000,0.00,0.08,-272.75,-272.80,-0,511,-956,15.3,3.2,-29.1,15.5,3.2,-28.7,5.73,2.01,-22.3,22.0
2016-01-21 00:59:00,0.0,1.95282,0.00033,407.771,0.029,0.0686,0.0011,139.997,45.000,31441.23107,1.95417,408.107,29.324,45.072,45.000,0.00,0.08,-272.76,-272.80,-2,511,-956,15.3,3.2,-29.0,15.5,3.2,-28.7,5.73,1.83,-22.3,22.0
2016-01-21 01:00:00,0.0,1.95291,0.00038,407.765,0.036,0.0689,0.0021,139.998,45.000,31439.56633,1.95420,408.102,29.316,45.072,45.000,0.00,0.08,-272.75,-272.80,-0,511,-956,15.3,3.2,-29.1,15.5,3.2,-28.7,5.73,1.82,-22.3,22.0
2016-01-21 01:01:00,0.0,1.95273,0.00037,407.772,0.027,0.0686,0.0023,140.001,45.000,31439.76332,1.95408,408.109,29.314,45.072,45.000,0.00,0.08,-272.75,-272.79,-2,511,-956,15.3,3.2,-29.0,15.5,3.2,-28.7,5.73,2.03,-22.3,22.1
2016-01-21 01:02:00,0.0,1.95249,0.00047,407.750,0.035,0.0688,0.0016,139.999,45.000,31441.38790,1.95384,408.088,29.313,45.072,45.000,0.00,0.08,-272.75,-272.80,-0,511,-956,15.3,3.2,-29.0,15.5,3.3,-28.6,5.73,1.72,-22.3,22.1
2016-01-21 01:03:00,0.0,1.95208,0.00043,407.693,0.036,0.0685,0.0018,140.001,45.000,31443.31833,1.95336,408.030,29.313,45.072,45.000,0.00,0.08,-272.75,-272.80,-1,511,-956,15.3,3.2,-29.0,15.5,3.3,-28.6,5.73,2.00,-22.3,22.1
2016-01-21 01:04:00,0.0,1.95208,0.00044,407.700,0.030,0.0684,0.0016,140.000,45.000,31441.93667,1.95343,408.035,29.313,45.072,45.000,0.00,0.08,-272.74,-272.80,-1,511,-956,15.3,3.2,-29.0,15.5,3.3,-28.7,5.73,1.87,-22.2,22.1
2016-01-21 01:05:00,0.0,1.95196,0.00041,407.695,0.035,0.0685,0.0013,139.999,45.000,31442.33668,1.95326,408.033,29.316,45.072,45.000,0.00,0.08,-272.75,-272.80,-1,511,-956,15.3,3.2,-29.1,15.5,3.2,-28.7,5.73,1.80,-22.3,22.1
2016-01-21 01:06:00,0.0,1.95189,0.00040,407.693,0.023,0.0684,0.0018,139.999,45.000,31442.87534,1.95320,408.027,29.318,45.072,45.000,0.00,0.08,-272.75,-272.80,-1,511,-956,15.3,3.2,-29.1,15.5,3.2,-28.7,5.73,2.05,-22.3,22.1
2016-01-21 01:07:00,0.0,1.95202,0.00031,407.681,0.032,0.0690,0.0021,139.999,45.000,31443.07168,1.95334,408.020,29.333,45.072,45.000,0.00,0.08,-272.74,-272.80,-0,511,-956,15.3,3.2,-29.1,15.5,3.2,-28.7,5.73,1.74,-22.3,22.1
2016-01-21 01:08:00,0.0,1.95207,0.00032,407.708,0.031,0.0685,0.0013,139.999,45.000,31444.34841,1.95337,408.044,29.353,45.072,45.000,0.00,0.08,-272.75,-272.80,-2,511,-956,15.3,3.2,-29.1,15.5,3.2,-28.7,5.73,1.97,-22.3,22.0
2016-01-21 01:09:00,0.0,1.95193,0.00040,407.702,0.040,0.0675,0.0015,140.000,45.000,31445.66167,1.95326,408.032,29.361,45.072,45.000,0.00,0.08,-272.75,-272.80,-0,511,-956,15.3,3.2,-29.1,15.5,3.2,-28.7,5.73,1.92,-22.3,22.1
2016-01-21 01:10:00,0.0,1.95178,0.00034,407.698,0.026,0.0678,0.0019,139.999,45.000,31445.65011,1.95308,408.031,29.358,45.071,45.000,0.00,0.08,-272.74,-272.80,-2,511,-956,15.3,3.2,-29.1,15.5,3.2,-28.7,5.73,1.77,-22.3,22.1
2016-01-21 01:11:00,0.0,1.95157,0.00037,407.664,0.036,0.0690,0.0018,139.998,45.000,31447.25651,1.95289,408.002,29.326,45.071,45.000,0.00,0.08,-272.75,-272.80,-0,511,-956,15.3,3.2,-29.1,15.5,3.2,-28.7,5.73,2.05,-22.2,22.1
2016-01-21 01:12:00,0.0,1.95172,0.00033,407.687,0.029,0.0682,0.0016,139.998,45.000,31446.27293,1.95305,408.021,29.316,45.071,45.000,0.00,0.08,-272.75,-272.80,-2,511,-956,15.3,3.1,-29.1,15.5,3.2,-28.7,5.73,1.76,-22.2,22.1
2016-01-21 01:13:00,0.0,1.95169,0.00033,407.690,0.025,0.0673,0.0016,139.998,45.000,31445.10295,1.95298,408.020,29.314,45.072,45.000,0.00,0.08,-272.75,-272.80,-1,511,-956,15.3,3.1,-29.3,15.5,3.2,-28.8,5.73,1.93,-22.2,22.1
2016-01-21 01:14:00,0.0,1.95182,0.00035,407.685,0.034,0.0682,0.0019,139.999,45.000,31443.12708,1.95312,408.019,29.314,45.072,45.000,0.00,0.08,-272.75,-272.79,-1,511,-956,15.3,3.1,-29.3,15.5,3.2,-28.9,5.73,1.96,-22.3,22.1
2016-01-21 01:15:00,0.0,1.95151,0.00048,407.670,0.037,0.0673,0.0017,140.000,45.000,31445.30943,1.95280,408.000,29.360,45.072,45.000,0.00,0.08,-272.75,-272.80,-1,511,-956,15.3,3.1,-29.2,15.5,3.2,-28.8,5.73,1.75,-22.2,22.1
2016-01-21 01:16:00,0.0,1.95146,0.00028,407.682,0.041,0.0679,0.0018,139.995,45.000,31442.66757,1.95277,408.015,29.366,45.071,45.000,0.00,0.08,-272.75,-272.81,-1,511,-956,15.3,3.1,-29.2,15.5,3.2,-28.8,5.73,2.06,-22.2,22.1
2016-01-21 01:17:00,0.0,1.95145,0.00038,407.667,0.037,0.0679,0.0015,139.996,45.000,31443.61755,1.95276,408.000,29.338,45.071,45.000,0.00,0.08,-272.74,-272.79,-2,511,-956,15.3,3.2,-29.1,15.5,3.2,-28.8,5.73,1.80,-22.2,22.1
2016-01-21 01:18:00,0.0,1.95132,0.00031,407.656,0.032,0.0692,0.0023,140.000,45.000,31442.70285,1.95266,407.995,29.313,45.071,45.000,0.00,0.08,-272.74,-272.80,-0,511,-955,15.3,3.2,-29.1,15.5,3.2,-28.7,5.73,1.90,-22.2,22.1
2016-01-21 01:19:00,0.0,1.95133,0.00033,407.655,0.026,0.0696,0.0016,140.001,45.000,31444.63150,1.95265,407.996,29.312,45.071,45.000,0.00,0.08,-272.75,-272.80,-2,511,-956,15.3,3.2,-29.0,15.5,3.3,-28.6,5.73,2.00,-22.2,22.1
2016-01-21 01:20:00,0.0,1.95125,0.00030,407.652,0.026,0.0690,0.0013,139.998,45.000,31444.37575,1.95259,407.992,29.312,45.071,45.000,0.00,0.08,-272.75,-272.80,-0,511,-955,15.3,3.2,-28.9,15.5,3.3,-28.6,5.73,1.74,-22.2,22.1
2016-01-21 01:21:00,0.0,1.95088,0.00038,407.606,0.028,0.0689,0.0018,140.000,45.000,31445.08714,1.95219,407.943,29.312,45.071,45.000,0.00,0.08,-272.75,-272.79,-2,511,-955,15.3,3.2,-29.0,15.5,3.3,-28.6,5.73,2.05,-22.2,22.1
2016-01-21 01:22:00,0.0,1.95109,0.00042,407.620,0.025,0.0712,0.0014,139.997,45.000,31444.02895,1.95246,407.970,29.313,45.071,45.000,0.00,0.08,-272.75,-272.80,-1,511,-956,15.3,3.2,-28.9,15.5,3.3,-28.5,5.73,1.83,-22.3,22.1
2016-01-21 01:23:00,0.0,1.95137,0.00028,407.655,0.032,0.0700,0.0014,140.000,45.000,31442.07334,1.95271,407.997,29.313,45.071,45.000,0.00,0.08,-272.75,-272.81,-2,511,-955,15.3,3.3,-28.7,15.5,3.3,-28.4,5.73,1.86,-22.2,22.1
2016-01-21 01:24:00,0.0,1.95145,0.00033,407.667,0.034,0.0708,0.0012,140.001,45.000,31442.97515,1.95281,408.015,29.304,45.071,45.000,0.00,0.08,-272.75,-272.79,-1,511,-955,15.3,3.2,-28.8,15.5,3.3,-28.4,5.73,2.03,-22.2,22.1
2016-01-21 01:25:00,0.0,1.95123,0.00039,407.651,0.023,0.0707,0.0020,140.000,45.000,31442.49332,1.95262,407.997,29.285,45.071,45.000,0.00,0.08,-272.75,-272.80,-1,511,-955,15.3,3.2,-28.8,15.5,3.3,-28.4,5.73,1.73,-22.3,22.1
2016-01-21 01:26:00,0.0,1.95124,0.00035,407.644,0.031,0.0712,0.0016,139.999,45.000,31443.65720,1.95258,407.994,29.305,45.071,45.000,0.00,0.08,-272.76,-272.80,-2,511,-955,15.3,3.3,-28.7,15.5,3.3,-28.4,5.73,2.02,-22.2,22.1
2016-01-21 01:27:00,0.0,1.95122,0.00035,407.645,0.032,0.0719,0.0023,139.999,45.000,31441.69933,1.95261,407.996,29.301,45.072,45.000,0.00,0.08,-272.75,-272.80,-1,511,-955,15.3,3.3,-28.6,15.6,3.4,-28.3,5.73,1.86,-22.2,22.1
2016-01-21 01:28:00,0.0,1.95111,0.00033,407.623,0.025,0.0718,0.0016,139.999,45.000,31441.81117,1.95251,407.977,29.312,45.071,45.000,0.00,0.08,-272.74,-272.80,-2,511,-955,15.3,3.3,-28.6,15.6,3.4,-28.3,5.73,1.81,-22.2,22.1
2016-01-21 01:29:00,0.0,1.95085,0.00039,407.632,0.038,0.0724,0.0015,139.999,45.000,31444.16342,1.95223,407.988,29.324,45.071,45.000,0.00,0.08,-272.76,-272.80,-0,511,-955,15.3,3.3,-28.5,15.6,3.4,-28.2,5.73,2.04,-22.2,22.1
2016-01-21 01:30:00,0.0,1.95110,0.00043,407.634,0.046,0.0728,0.0014,139.997,45.000,31442.95672,1.95249,407.990,29.350,45.072,45.000,0.00,0.08,-272.74,-272.80,-2,511,-955,15.3,3.3,-28.6,15.6,3.4,-28.1,5.73,1.73,-22.2,22.1
2016-01-21 01:31:00,0.0,1.95138,0.00035,407.637,0.036,0.0729,0.0020,140.001,45.000,31443.79335,1.95277,407.995,29.375,45.071,45.000,0.00,0.08,-272.74,-272.79,-1,511,-955,15.4,3.3,-28.5,15.6,3.4,-28.1,5.73,1.99,-22.2,22.1
2016-01-21 01:32:00,0.0,1.95157,0.00036,407.633,0.045,0.0722,0.0016,140.001,45.000,31444.19749,1.95297,407.986,29.375,45.071,45.000,0.00,0.08,-272.75,-272.80,-2,511,-955,15.3,3.3,-28.6,15.6,3.4,-28.2,5.73,1.91,-22.3,22.1
2016-01-21 01:33:00,0.0,1.95083,0.00039,407.589,0.031,0.0715,0.0014,140.002,45.000,31447.32342,1.95222,407.941,29.375,45.071,45.000,0.00,0.08,-272.75,-272.81,-1,511,-955,15.3,3.3,-28.6,15.6,3.4,-28.2,5.73,1.79,-22.3,22.1
2016-01-21 01:34:00,0.0,1.95052,0.00050,407.562,0.037,0.0732,0.0023,140.000,45.000,31447.75070,1.95193,407.922,29.375,45.071,45.000,0.00,0.08,-272.75,-272.80,-1,511,-955,15.3,3.3,-28.5,15.6,3.4,-28.2,5.73,2.06,-22.2,22.1
2016-01-21 01:35:00,0.0,1.95103,0.00036,407.578,0.036,0.0740,0.0014,139.997,45.000,31443.66477,1.95244,407.940,29.339,45.071,45.000,0.00,0.08,-272.75,-272.80,-1,511,-955,15.3,3.4,-28.4,15.6,3.4,-28.1,5.73,1.75,-22.2,22.1
2016-01-21 01:36:00,0.0,1.95140,0.00036,407.615,0.029,0.0748,0.0017,139.998,45.000,31444.70581,1.95280,407.980,29.313,45.072,45.000,0.00,0.08,-272.75,-272.81,-1,511,-956,15.3,3.4,-28.3,15.6,3.5,-28.0,5.73,1.97,-22.2,22.1
2016-01-21 01:37:00,0.0,1.95139,0.00029,407.647,0.023,0.0746,0.0012,139.998,45.000,31446.07255,1.95283,408.012,29.309,45.072,45.000,0.00,0.08,-272.75,-272.79,-2,511,-956,15.3,3.4,-28.3,15.6,3.5,-27.9,5.73,1.92,-22.2,22.2
2016-01-21 01:38:00,0.0,1.95129,0.00030,407.618,0.038,0.0742,0.0018,140.002,45.000,31445.46433,1.95273,407.982,29.268,45.072,45.001,0.00,0.08,-272.74,-272.80,-1,511,-955,15.3,3.4,-28.3,15.6,3.5,-27.9,5.73,1.78,-22.2,22.1
2016-01-21 01:39:00,0.0,1.95140,0.00043,407.638,0.025,0.0748,0.0012,140.000,45.000,31445.07175,1.95285,408.004,29.249,45.072,45.001,0.00,0.08,-272.76,-272.80,-2,511,-956,15.3,3.4,-28.3,15.6,3.5,-27.9,5.73,2.06,-22.3,22.1
2016-01-21 01:40:00,0.0,1.95133,0.00032,407.613,0.038,0.0752,0.0013,140.000,45.000,31447.01694,1.95277,407.982,29.238,45.072,45.001,0.00,0.08,-272.75,-272.80,-0,511,-955,15.3,3.4,-28.2,15.6,3.5,-27.8,5.73,1.75,-22.2,22.1
2016-01-21 01:41:00,0.0,1.95107,0.00037,407.601,0.030,0.0752,0.0018,140.000,45.000,31448.13858,1.95250,407.969,29.234,45.072,45.001,0.00,0.08,-272.75,-272.80,-2,511,-956,15.3,3.4,-28.2,15.6,3.5,-27.9,5.73,1.98,-22.2,22.1
2016-01-21 01:42:00,0.0,1.95114,0.00041,407.599,0.030,0.0746,0.0018,140.001,45.000,31449.13572,1.95259,407.967,29.249,45.072,45.001,0.00,0.08,-272.75,-272.80,-0,511,-956,15.3,3.4,-28.3,15.6,3.5,-27.9,5.73,1.93,-22.2,22.1
2016-01-21 01:43:00,0.0,1.95098,0.00035,407.594,0.042,0.0744,0.0022,140.000,45.000,31448.29755,1.95239,407.959,29.250,45.072,45.001,0.00,0.08,-272.75,-272.80,-2,511,-956,15.3,3.4,-28.3,15.6,3.5,-27.9,5.73,1.79,-22.2,22.1
2016-01-21 01:44:00,0.0,1.95090,0.00035,407.605,0.031,0.0749,0.0018,139.999,45.000,31447.74301,1.95237,407.972,29.256,45.072,45.000,0.00,0.08,-272.75,-272.79,-1,511,-955,15.3,3.4,-28.3,15.6,3.5,-27.9,5.73,2.07,-22.2,22.1
2016-01-21 01:45:00,0.0,1.95105,0.00041,407.591,0.035,0.0751,0.0013,140.000,45.000,31446.68477,1.95246,407.960,29.260,45.072,45.000,0.00,0.08,-272.74,-272.79,-2,511,-955,15.3,3.4,-28.3,15.6,3.5,-27.9,5.73,1.76,-22.2,22.1